owner,sensor,date,latitude,longitude,vertical_datum,sea_water_practical_salinity,qcFlag 
TCOON,ioos:station:TCOON:079:1,2012-10-01T00:00:00Z,27.8708,-97.5177,0.0,27.4,1111122 
TCOON,ioos:station:TCOON:079:1,2012-10-01T00:30:00Z,27.8708,-97.5177,0.0,32.0,1111122 
TCOON,ioos:station:TCOON:079:1,2012-10-01T01:00:00Z,27.8708,-97.5177,0.0,35.2,1111122 
TCOON,ioos:station:TCOON:079:1,2012-10-01T01:30:00Z,27.8708,-97.5177,0.0,36.5,1111122 
TCOON,ioos:station:TCOON:079:1,2012-10-01T02:00:00Z,27.8708,-97.5177,0.0,36.5,1111122 
TCOON,ioos:station:TCOON:079:1,2012-10-01T02:30:00Z,27.8708,-97.5177,0.0,36.2,1111122 
TCOON,ioos:station:TCOON:079:1,2012-10-01T03:00:00Z,27.8708,-97.5177,0.0,37.2,1111122 
TCOON,ioos:station:TCOON:079:1,2012-10-01T03:30:00Z,27.8708,-97.5177,0.0,38.0,1111122 
TCOON,ioos:station:TCOON:079:1,2012-10-01T04:00:00Z,27.8708,-97.5177,0.0,38.5,1111122 
TCOON,ioos:station:TCOON:079:1,2012-10-01T04:30:00Z,27.8708,-97.5177,0.0,38.4,1111122 
TCOON,ioos:station:TCOON:079:1,2012-10-01T05:00:00Z,27.8708,-97.5177,0.0,38.2,1111122 
TCOON,ioos:station:TCOON:079:1,2012-10-01T05:30:00Z,27.8708,-97.5177,0.0,38.7,1111122 
TCOON,ioos:station:TCOON:079:1,2012-10-01T06:00:00Z,27.8708,-97.5177,0.0,38.8,1111122 
TCOON,ioos:station:TCOON:079:1,2012-10-01T06:30:00Z,27.8708,-97.5177,0.0,38.6,1111122 
TCOON,ioos:station:TCOON:079:1,2012-10-01T07:00:00Z,27.8708,-97.5177,0.0,38.7,1111122 
TCOON,ioos:station:TCOON:079:1,2012-10-01T07:30:00Z,27.8708,-97.5177,0.0,39.1,1111122 
TCOON,ioos:station:TCOON:079:1,2012-10-01T08:00:00Z,27.8708,-97.5177,0.0,38.6,1111122 
TCOON,ioos:station:TCOON:079:1,2012-10-01T08:30:00Z,27.8708,-97.5177,0.0,36.7,1111122 
TCOON,ioos:station:TCOON:079:1,2012-10-01T09:00:00Z,27.8708,-97.5177,0.0,38.9,1111122 
TCOON,ioos:station:TCOON:079:1,2012-10-01T09:30:00Z,27.8708,-97.5177,0.0,39.0,1111122 
TCOON,ioos:station:TCOON:079:1,2012-10-01T10:00:00Z,27.8708,-97.5177,0.0,34.3,1111122 
TCOON,ioos:station:TCOON:079:1,2012-10-01T10:30:00Z,27.8708,-97.5177,0.0,32.0,1111122 
TCOON,ioos:station:TCOON:079:1,2012-10-01T11:00:00Z,27.8708,-97.5177,0.0,31.7,1111122 
TCOON,ioos:station:TCOON:079:1,2012-10-01T11:30:00Z,27.8708,-97.5177,0.0,35.8,1111122 
TCOON,ioos:station:TCOON:079:1,2012-10-01T12:00:00Z,27.8708,-97.5177,0.0,36.3,1111122 
TCOON,ioos:station:TCOON:079:1,2012-10-01T12:30:00Z,27.8708,-97.5177,0.0,37.6,1111122 
TCOON,ioos:station:TCOON:079:1,2012-10-01T13:00:00Z,27.8708,-97.5177,0.0,38.5,1111122 
TCOON,ioos:station:TCOON:079:1,2012-10-01T13:30:00Z,27.8708,-97.5177,0.0,38.8,1111122 
TCOON,ioos:station:TCOON:079:1,2012-10-01T14:30:00Z,27.8708,-97.5177,0.0,37.1,1111122 
TCOON,ioos:station:TCOON:079:1,2012-10-01T15:00:00Z,27.8708,-97.5177,0.0,30.1,1111122 
TCOON,ioos:station:TCOON:079:1,2012-10-01T15:30:00Z,27.8708,-97.5177,0.0,29.2,1111122 
TCOON,ioos:station:TCOON:079:1,2012-10-01T16:00:00Z,27.8708,-97.5177,0.0,29.0,1111122 
TCOON,ioos:station:TCOON:079:1,2012-10-01T16:30:00Z,27.8708,-97.5177,0.0,28.8,1111122 
TCOON,ioos:station:TCOON:079:1,2012-10-01T17:30:00Z,27.8708,-97.5177,0.0,29.0,1111122 
TCOON,ioos:station:TCOON:079:1,2012-10-01T18:00:00Z,27.8708,-97.5177,0.0,28.7,1111122 
TCOON,ioos:station:TCOON:079:1,2012-10-01T18:30:00Z,27.8708,-97.5177,0.0,28.4,1111122 
TCOON,ioos:station:TCOON:079:1,2012-10-01T19:00:00Z,27.8708,-97.5177,0.0,28.7,1111122 
TCOON,ioos:station:TCOON:079:1,2012-10-01T19:30:00Z,27.8708,-97.5177,0.0,28.8,1111122 
TCOON,ioos:station:TCOON:079:1,2012-10-01T20:00:00Z,27.8708,-97.5177,0.0,28.1,1111122 
TCOON,ioos:station:TCOON:079:1,2012-10-01T20:30:00Z,27.8708,-97.5177,0.0,27.8,1111122 
TCOON,ioos:station:TCOON:079:1,2012-10-01T21:00:00Z,27.8708,-97.5177,0.0,27.7,1111122 
TCOON,ioos:station:TCOON:079:1,2012-10-01T22:00:00Z,27.8708,-97.5177,0.0,27.4,1111122 
TCOON,ioos:station:TCOON:079:1,2012-10-01T22:30:00Z,27.8708,-97.5177,0.0,28.1,1111122 
TCOON,ioos:station:TCOON:079:1,2012-10-01T23:00:00Z,27.8708,-97.5177,0.0,27.7,1111122 
TCOON,ioos:station:TCOON:079:1,2012-10-01T23:30:00Z,27.8708,-97.5177,0.0,27.6,1111122 
TCOON,ioos:station:TCOON:079:1,2012-10-02T00:00:00Z,27.8708,-97.5177,0.0,30.8,1111122 
TCOON,ioos:station:TCOON:079:1,2012-10-02T01:30:00Z,27.8708,-97.5177,0.0,34.5,1111122 
TCOON,ioos:station:TCOON:079:1,2012-10-02T02:00:00Z,27.8708,-97.5177,0.0,35.0,1111122 
TCOON,ioos:station:TCOON:079:1,2012-10-02T02:30:00Z,27.8708,-97.5177,0.0,35.7,1111122 
TCOON,ioos:station:TCOON:079:1,2012-10-02T03:00:00Z,27.8708,-97.5177,0.0,36.0,1111122 
TCOON,ioos:station:TCOON:079:1,2012-10-02T03:30:00Z,27.8708,-97.5177,0.0,36.3,1111122 
TCOON,ioos:station:TCOON:079:1,2012-10-02T04:00:00Z,27.8708,-97.5177,0.0,36.6,1111122 
TCOON,ioos:station:TCOON:079:1,2012-10-02T04:30:00Z,27.8708,-97.5177,0.0,37.0,1111122 
TCOON,ioos:station:TCOON:079:1,2012-10-02T05:00:00Z,27.8708,-97.5177,0.0,37.2,1111122 
TCOON,ioos:station:TCOON:079:1,2012-10-02T05:30:00Z,27.8708,-97.5177,0.0,37.3,1111122 
TCOON,ioos:station:TCOON:079:1,2012-10-02T06:00:00Z,27.8708,-97.5177,0.0,37.5,1111122 
TCOON,ioos:station:TCOON:079:1,2012-10-02T06:30:00Z,27.8708,-97.5177,0.0,37.7,1111122 
TCOON,ioos:station:TCOON:079:1,2012-10-02T07:00:00Z,27.8708,-97.5177,0.0,37.8,1111122 
TCOON,ioos:station:TCOON:079:1,2012-10-02T07:30:00Z,27.8708,-97.5177,0.0,36.8,1111122 
TCOON,ioos:station:TCOON:079:1,2012-10-02T08:00:00Z,27.8708,-97.5177,0.0,35.3,1111122 
TCOON,ioos:station:TCOON:079:1,2012-10-02T08:30:00Z,27.8708,-97.5177,0.0,35.3,1111122 
TCOON,ioos:station:TCOON:079:1,2012-10-02T09:00:00Z,27.8708,-97.5177,0.0,33.3,1111122 
TCOON,ioos:station:TCOON:079:1,2012-10-02T09:30:00Z,27.8708,-97.5177,0.0,31.3,1111122 
TCOON,ioos:station:TCOON:079:1,2012-10-02T10:00:00Z,27.8708,-97.5177,0.0,31.5,1111122 
TCOON,ioos:station:TCOON:079:1,2012-10-02T10:30:00Z,27.8708,-97.5177,0.0,32.0,1111122 
TCOON,ioos:station:TCOON:079:1,2012-10-02T11:00:00Z,27.8708,-97.5177,0.0,31.6,1111122 
TCOON,ioos:station:TCOON:079:1,2012-10-02T11:30:00Z,27.8708,-97.5177,0.0,31.7,1111122 
TCOON,ioos:station:TCOON:079:1,2012-10-02T12:00:00Z,27.8708,-97.5177,0.0,31.5,1111122 
TCOON,ioos:station:TCOON:079:1,2012-10-02T12:30:00Z,27.8708,-97.5177,0.0,31.4,1111122 
TCOON,ioos:station:TCOON:079:1,2012-10-02T13:00:00Z,27.8708,-97.5177,0.0,31.3,1111122 
TCOON,ioos:station:TCOON:079:1,2012-10-02T13:30:00Z,27.8708,-97.5177,0.0,31.4,1111122 
TCOON,ioos:station:TCOON:079:1,2012-10-02T14:00:00Z,27.8708,-97.5177,0.0,31.1,1111122 
TCOON,ioos:station:TCOON:079:1,2012-10-02T14:30:00Z,27.8708,-97.5177,0.0,30.7,1111122 
TCOON,ioos:station:TCOON:079:1,2012-10-02T15:00:00Z,27.8708,-97.5177,0.0,27.8,1111122 
TCOON,ioos:station:TCOON:079:1,2012-10-02T15:30:00Z,27.8708,-97.5177,0.0,28.5,1111122 
TCOON,ioos:station:TCOON:079:1,2012-10-02T16:00:00Z,27.8708,-97.5177,0.0,27.7,1111122 
TCOON,ioos:station:TCOON:079:1,2012-10-02T16:30:00Z,27.8708,-97.5177,0.0,28.2,1111122 
TCOON,ioos:station:TCOON:079:1,2012-10-02T17:30:00Z,27.8708,-97.5177,0.0,26.3,1111122 
TCOON,ioos:station:TCOON:079:1,2012-10-02T18:30:00Z,27.8708,-97.5177,0.0,23.8,1111122 
TCOON,ioos:station:TCOON:079:1,2012-10-02T19:00:00Z,27.8708,-97.5177,0.0,23.6,1111122 
TCOON,ioos:station:TCOON:079:1,2012-10-02T19:30:00Z,27.8708,-97.5177,0.0,23.6,1111122 
TCOON,ioos:station:TCOON:079:1,2012-10-02T20:00:00Z,27.8708,-97.5177,0.0,23.3,1111122 
TCOON,ioos:station:TCOON:079:1,2012-10-02T20:30:00Z,27.8708,-97.5177,0.0,30.2,1111122 
TCOON,ioos:station:TCOON:079:1,2012-10-02T21:00:00Z,27.8708,-97.5177,0.0,23.8,1111122 
TCOON,ioos:station:TCOON:079:1,2012-10-02T22:00:00Z,27.8708,-97.5177,0.0,38.1,1111122 
TCOON,ioos:station:TCOON:079:1,2012-10-02T22:30:00Z,27.8708,-97.5177,0.0,38.3,1111122 
TCOON,ioos:station:TCOON:079:1,2012-10-02T23:00:00Z,27.8708,-97.5177,0.0,29.0,1111122 
TCOON,ioos:station:TCOON:079:1,2012-10-03T00:00:00Z,27.8708,-97.5177,0.0,38.9,1111122 
TCOON,ioos:station:TCOON:079:1,2012-10-03T00:30:00Z,27.8708,-97.5177,0.0,39.0,1111122 
TCOON,ioos:station:TCOON:079:1,2012-10-03T01:00:00Z,27.8708,-97.5177,0.0,39.1,1111122 
TCOON,ioos:station:TCOON:079:1,2012-10-03T01:30:00Z,27.8708,-97.5177,0.0,38.9,1111122 
TCOON,ioos:station:TCOON:079:1,2012-10-03T02:00:00Z,27.8708,-97.5177,0.0,39.0,1111122 
TCOON,ioos:station:TCOON:079:1,2012-10-03T02:30:00Z,27.8708,-97.5177,0.0,38.9,1111122 
TCOON,ioos:station:TCOON:079:1,2012-10-03T03:00:00Z,27.8708,-97.5177,0.0,39.0,1111122 
TCOON,ioos:station:TCOON:079:1,2012-10-03T03:30:00Z,27.8708,-97.5177,0.0,39.1,1111122 
TCOON,ioos:station:TCOON:079:1,2012-10-03T04:00:00Z,27.8708,-97.5177,0.0,39.2,1111122 
TCOON,ioos:station:TCOON:079:1,2012-10-03T04:30:00Z,27.8708,-97.5177,0.0,39.0,1111122 
TCOON,ioos:station:TCOON:079:1,2012-10-03T05:00:00Z,27.8708,-97.5177,0.0,39.4,1111122 
TCOON,ioos:station:TCOON:079:1,2012-10-03T05:30:00Z,27.8708,-97.5177,0.0,39.5,1111122 
TCOON,ioos:station:TCOON:079:1,2012-10-03T06:00:00Z,27.8708,-97.5177,0.0,39.6,1111122 
TCOON,ioos:station:TCOON:079:1,2012-10-03T07:00:00Z,27.8708,-97.5177,0.0,39.8,1111122 
TCOON,ioos:station:TCOON:079:1,2012-10-03T07:30:00Z,27.8708,-97.5177,0.0,39.8,1111122 
TCOON,ioos:station:TCOON:079:1,2012-10-03T08:00:00Z,27.8708,-97.5177,0.0,40.1,1111122 
TCOON,ioos:station:TCOON:079:1,2012-10-03T08:30:00Z,27.8708,-97.5177,0.0,40.2,1111122 
TCOON,ioos:station:TCOON:079:1,2012-10-03T09:00:00Z,27.8708,-97.5177,0.0,40.3,1111122 
TCOON,ioos:station:TCOON:079:1,2012-10-03T09:30:00Z,27.8708,-97.5177,0.0,40.4,1111122 
TCOON,ioos:station:TCOON:079:1,2012-10-03T10:00:00Z,27.8708,-97.5177,0.0,40.6,1111122 
TCOON,ioos:station:TCOON:079:1,2012-10-03T10:30:00Z,27.8708,-97.5177,0.0,40.5,1111122 
TCOON,ioos:station:TCOON:079:1,2012-10-03T11:00:00Z,27.8708,-97.5177,0.0,40.6,1111122 
TCOON,ioos:station:TCOON:079:1,2012-10-03T11:30:00Z,27.8708,-97.5177,0.0,40.6,1111122 
TCOON,ioos:station:TCOON:079:1,2012-10-03T12:00:00Z,27.8708,-97.5177,0.0,40.7,1111122 
TCOON,ioos:station:TCOON:079:1,2012-10-03T12:30:00Z,27.8708,-97.5177,0.0,40.7,1111122 
TCOON,ioos:station:TCOON:079:1,2012-10-03T13:00:00Z,27.8708,-97.5177,0.0,40.7,1111122 
TCOON,ioos:station:TCOON:079:1,2012-10-03T13:30:00Z,27.8708,-97.5177,0.0,40.7,1111122 
TCOON,ioos:station:TCOON:079:1,2012-10-03T14:00:00Z,27.8708,-97.5177,0.0,40.6,1111122 
TCOON,ioos:station:TCOON:079:1,2012-10-03T14:30:00Z,27.8708,-97.5177,0.0,40.6,1111122 
TCOON,ioos:station:TCOON:079:1,2012-10-03T15:00:00Z,27.8708,-97.5177,0.0,40.6,1111122 
TCOON,ioos:station:TCOON:079:1,2012-10-03T15:30:00Z,27.8708,-97.5177,0.0,40.6,1111122 
TCOON,ioos:station:TCOON:079:1,2012-10-03T16:00:00Z,27.8708,-97.5177,0.0,40.5,1111122 
TCOON,ioos:station:TCOON:079:1,2012-10-03T16:30:00Z,27.8708,-97.5177,0.0,40.5,1111122 
TCOON,ioos:station:TCOON:079:1,2012-10-03T17:00:00Z,27.8708,-97.5177,0.0,40.5,1111122 
TCOON,ioos:station:TCOON:079:1,2012-10-03T18:30:00Z,27.8708,-97.5177,0.0,40.1,1111122 
TCOON,ioos:station:TCOON:079:1,2012-10-03T19:00:00Z,27.8708,-97.5177,0.0,39.8,1111122 
TCOON,ioos:station:TCOON:079:1,2012-10-03T19:30:00Z,27.8708,-97.5177,0.0,40.2,1111122 
TCOON,ioos:station:TCOON:079:1,2012-10-03T20:00:00Z,27.8708,-97.5177,0.0,40.2,1111122 
TCOON,ioos:station:TCOON:079:1,2012-10-03T20:30:00Z,27.8708,-97.5177,0.0,40.2,1111122 
TCOON,ioos:station:TCOON:079:1,2012-10-03T21:00:00Z,27.8708,-97.5177,0.0,40.2,1111122 
TCOON,ioos:station:TCOON:079:1,2012-10-03T21:30:00Z,27.8708,-97.5177,0.0,40.2,1111122 
TCOON,ioos:station:TCOON:079:1,2012-10-03T22:00:00Z,27.8708,-97.5177,0.0,40.3,1111122 
TCOON,ioos:station:TCOON:079:1,2012-10-03T23:00:00Z,27.8708,-97.5177,0.0,40.4,1111122 
TCOON,ioos:station:TCOON:079:1,2012-10-03T23:30:00Z,27.8708,-97.5177,0.0,40.5,1111122 
TCOON,ioos:station:TCOON:079:1,2012-10-04T00:00:00Z,27.8708,-97.5177,0.0,40.5,1111122 
TCOON,ioos:station:TCOON:079:1,2012-10-04T00:30:00Z,27.8708,-97.5177,0.0,40.5,1111122 
TCOON,ioos:station:TCOON:079:1,2012-10-04T02:00:00Z,27.8708,-97.5177,0.0,40.5,1111122 
TCOON,ioos:station:TCOON:079:1,2012-10-04T03:00:00Z,27.8708,-97.5177,0.0,40.4,1111122 
TCOON,ioos:station:TCOON:079:1,2012-10-04T03:30:00Z,27.8708,-97.5177,0.0,40.5,1111122 
TCOON,ioos:station:TCOON:079:1,2012-10-04T04:00:00Z,27.8708,-97.5177,0.0,40.5,1111122 
TCOON,ioos:station:TCOON:079:1,2012-10-04T04:30:00Z,27.8708,-97.5177,0.0,40.6,1111122 
TCOON,ioos:station:TCOON:079:1,2012-10-04T05:00:00Z,27.8708,-97.5177,0.0,40.6,1111122 
TCOON,ioos:station:TCOON:079:1,2012-10-04T05:30:00Z,27.8708,-97.5177,0.0,40.6,1111122 
TCOON,ioos:station:TCOON:079:1,2012-10-04T06:00:00Z,27.8708,-97.5177,0.0,40.6,1111122 
TCOON,ioos:station:TCOON:079:1,2012-10-04T06:30:00Z,27.8708,-97.5177,0.0,40.6,1111122 
TCOON,ioos:station:TCOON:079:1,2012-10-04T07:00:00Z,27.8708,-97.5177,0.0,40.7,1111122 
TCOON,ioos:station:TCOON:079:1,2012-10-04T07:30:00Z,27.8708,-97.5177,0.0,40.7,1111122 
TCOON,ioos:station:TCOON:079:1,2012-10-04T08:00:00Z,27.8708,-97.5177,0.0,40.7,1111122 
TCOON,ioos:station:TCOON:079:1,2012-10-04T08:30:00Z,27.8708,-97.5177,0.0,40.6,1111122 
TCOON,ioos:station:TCOON:079:1,2012-10-04T09:00:00Z,27.8708,-97.5177,0.0,40.7,1111122 
TCOON,ioos:station:TCOON:079:1,2012-10-04T09:30:00Z,27.8708,-97.5177,0.0,40.7,1111122 
TCOON,ioos:station:TCOON:079:1,2012-10-04T10:00:00Z,27.8708,-97.5177,0.0,40.7,1111122 
TCOON,ioos:station:TCOON:079:1,2012-10-04T10:30:00Z,27.8708,-97.5177,0.0,40.7,1111122 
TCOON,ioos:station:TCOON:079:1,2012-10-04T11:00:00Z,27.8708,-97.5177,0.0,40.8,1111122 
TCOON,ioos:station:TCOON:079:1,2012-10-04T11:30:00Z,27.8708,-97.5177,0.0,40.8,1111122 
TCOON,ioos:station:TCOON:079:1,2012-10-04T12:30:00Z,27.8708,-97.5177,0.0,40.8,1111122 
TCOON,ioos:station:TCOON:079:1,2012-10-04T13:00:00Z,27.8708,-97.5177,0.0,40.7,1111122 
TCOON,ioos:station:TCOON:079:1,2012-10-04T13:30:00Z,27.8708,-97.5177,0.0,40.9,1111122 
TCOON,ioos:station:TCOON:079:1,2012-10-04T14:00:00Z,27.8708,-97.5177,0.0,40.8,1111122 
TCOON,ioos:station:TCOON:079:1,2012-10-04T14:30:00Z,27.8708,-97.5177,0.0,40.8,1111122 
TCOON,ioos:station:TCOON:079:1,2012-10-04T15:00:00Z,27.8708,-97.5177,0.0,40.7,1111122 
TCOON,ioos:station:TCOON:079:1,2012-10-04T16:00:00Z,27.8708,-97.5177,0.0,40.5,1111122 
TCOON,ioos:station:TCOON:079:1,2012-10-04T16:30:00Z,27.8708,-97.5177,0.0,40.5,1111122 
TCOON,ioos:station:TCOON:079:1,2012-10-04T17:00:00Z,27.8708,-97.5177,0.0,40.6,1111122 
TCOON,ioos:station:TCOON:079:1,2012-10-04T17:30:00Z,27.8708,-97.5177,0.0,40.4,1111122 
TCOON,ioos:station:TCOON:079:1,2012-10-04T18:30:00Z,27.8708,-97.5177,0.0,40.4,1111122 
TCOON,ioos:station:TCOON:079:1,2012-10-04T19:00:00Z,27.8708,-97.5177,0.0,40.3,1111122 
TCOON,ioos:station:TCOON:079:1,2012-10-04T19:30:00Z,27.8708,-97.5177,0.0,40.2,1111122 
TCOON,ioos:station:TCOON:079:1,2012-10-04T20:00:00Z,27.8708,-97.5177,0.0,40.2,1111122 
TCOON,ioos:station:TCOON:079:1,2012-10-04T20:30:00Z,27.8708,-97.5177,0.0,40.2,1111122 
TCOON,ioos:station:TCOON:079:1,2012-10-04T21:00:00Z,27.8708,-97.5177,0.0,40.2,1111122 
TCOON,ioos:station:TCOON:079:1,2012-10-04T21:30:00Z,27.8708,-97.5177,0.0,40.2,1111122 
TCOON,ioos:station:TCOON:079:1,2012-10-04T22:00:00Z,27.8708,-97.5177,0.0,40.2,1111122 
TCOON,ioos:station:TCOON:079:1,2012-10-04T22:30:00Z,27.8708,-97.5177,0.0,40.2,1111122 
TCOON,ioos:station:TCOON:079:1,2012-10-04T23:00:00Z,27.8708,-97.5177,0.0,40.5,1111122 
TCOON,ioos:station:TCOON:079:1,2012-10-04T23:30:00Z,27.8708,-97.5177,0.0,40.4,1111122 
TCOON,ioos:station:TCOON:079:1,2012-10-05T01:30:00Z,27.8708,-97.5177,0.0,40.6,1111122 
TCOON,ioos:station:TCOON:079:1,2012-10-05T02:00:00Z,27.8708,-97.5177,0.0,40.8,1111122 
TCOON,ioos:station:TCOON:079:1,2012-10-05T02:30:00Z,27.8708,-97.5177,0.0,40.8,1111122 
TCOON,ioos:station:TCOON:079:1,2012-10-05T03:00:00Z,27.8708,-97.5177,0.0,40.8,1111122 
TCOON,ioos:station:TCOON:079:1,2012-10-05T03:30:00Z,27.8708,-97.5177,0.0,41.1,1111122 
TCOON,ioos:station:TCOON:079:1,2012-10-05T04:30:00Z,27.8708,-97.5177,0.0,41.1,1111122 
TCOON,ioos:station:TCOON:079:1,2012-10-05T05:00:00Z,27.8708,-97.5177,0.0,41.1,1111122 
TCOON,ioos:station:TCOON:079:1,2012-10-05T05:30:00Z,27.8708,-97.5177,0.0,41.1,1111122 
TCOON,ioos:station:TCOON:079:1,2012-10-05T06:00:00Z,27.8708,-97.5177,0.0,41.1,1111122 
TCOON,ioos:station:TCOON:079:1,2012-10-05T06:30:00Z,27.8708,-97.5177,0.0,41.1,1111122 
TCOON,ioos:station:TCOON:079:1,2012-10-05T07:30:00Z,27.8708,-97.5177,0.0,41.2,1111122 
TCOON,ioos:station:TCOON:079:1,2012-10-05T08:00:00Z,27.8708,-97.5177,0.0,41.2,1111122 
TCOON,ioos:station:TCOON:079:1,2012-10-05T08:30:00Z,27.8708,-97.5177,0.0,41.1,1111122 
TCOON,ioos:station:TCOON:079:1,2012-10-05T09:00:00Z,27.8708,-97.5177,0.0,41.1,1111122 
TCOON,ioos:station:TCOON:079:1,2012-10-05T09:30:00Z,27.8708,-97.5177,0.0,41.1,1111122 
TCOON,ioos:station:TCOON:079:1,2012-10-05T10:30:00Z,27.8708,-97.5177,0.0,41.1,1111122 
TCOON,ioos:station:TCOON:079:1,2012-10-05T11:00:00Z,27.8708,-97.5177,0.0,41.3,1111122 
TCOON,ioos:station:TCOON:079:1,2012-10-05T11:30:00Z,27.8708,-97.5177,0.0,41.2,1111122 
TCOON,ioos:station:TCOON:079:1,2012-10-05T12:00:00Z,27.8708,-97.5177,0.0,41.2,1111122 
TCOON,ioos:station:TCOON:079:1,2012-10-05T12:30:00Z,27.8708,-97.5177,0.0,41.0,1111122 
TCOON,ioos:station:TCOON:079:1,2012-10-05T13:00:00Z,27.8708,-97.5177,0.0,40.8,1111122 
TCOON,ioos:station:TCOON:079:1,2012-10-05T14:00:00Z,27.8708,-97.5177,0.0,40.9,1111122 
TCOON,ioos:station:TCOON:079:1,2012-10-05T14:30:00Z,27.8708,-97.5177,0.0,40.9,1111122 
TCOON,ioos:station:TCOON:079:1,2012-10-05T15:00:00Z,27.8708,-97.5177,0.0,40.8,1111122 
TCOON,ioos:station:TCOON:079:1,2012-10-05T15:30:00Z,27.8708,-97.5177,0.0,40.9,1111122 
TCOON,ioos:station:TCOON:079:1,2012-10-05T16:00:00Z,27.8708,-97.5177,0.0,40.9,1111122 
TCOON,ioos:station:TCOON:079:1,2012-10-05T16:30:00Z,27.8708,-97.5177,0.0,41.0,1111122 
TCOON,ioos:station:TCOON:079:1,2012-10-05T17:00:00Z,27.8708,-97.5177,0.0,40.6,1111122 
TCOON,ioos:station:TCOON:079:1,2012-10-05T17:30:00Z,27.8708,-97.5177,0.0,40.3,1111122 
TCOON,ioos:station:TCOON:079:1,2012-10-05T19:00:00Z,27.8708,-97.5177,0.0,40.3,1111122 
TCOON,ioos:station:TCOON:079:1,2012-10-05T19:30:00Z,27.8708,-97.5177,0.0,40.6,1111122 
TCOON,ioos:station:TCOON:079:1,2012-10-05T20:00:00Z,27.8708,-97.5177,0.0,40.4,1111122 
TCOON,ioos:station:TCOON:079:1,2012-10-05T20:30:00Z,27.8708,-97.5177,0.0,40.6,1111122 
TCOON,ioos:station:TCOON:079:1,2012-10-05T21:00:00Z,27.8708,-97.5177,0.0,40.5,1111122 
TCOON,ioos:station:TCOON:079:1,2012-10-05T22:30:00Z,27.8708,-97.5177,0.0,40.5,1111122 
TCOON,ioos:station:TCOON:079:1,2012-10-05T23:00:00Z,27.8708,-97.5177,0.0,41.0,1111122 
TCOON,ioos:station:TCOON:079:1,2012-10-05T23:30:00Z,27.8708,-97.5177,0.0,41.0,1111122 
TCOON,ioos:station:TCOON:079:1,2012-10-06T00:00:00Z,27.8708,-97.5177,0.0,41.0,1111122 
TCOON,ioos:station:TCOON:079:1,2012-10-06T00:30:00Z,27.8708,-97.5177,0.0,41.3,1111122 
TCOON,ioos:station:TCOON:079:1,2012-10-06T01:00:00Z,27.8708,-97.5177,0.0,41.5,1111122 
TCOON,ioos:station:TCOON:079:1,2012-10-06T01:30:00Z,27.8708,-97.5177,0.0,41.6,1111122 
TCOON,ioos:station:TCOON:079:1,2012-10-06T02:00:00Z,27.8708,-97.5177,0.0,41.7,1111122 
TCOON,ioos:station:TCOON:079:1,2012-10-06T02:30:00Z,27.8708,-97.5177,0.0,41.5,1111122 
TCOON,ioos:station:TCOON:079:1,2012-10-06T03:00:00Z,27.8708,-97.5177,0.0,41.3,1111122 
TCOON,ioos:station:TCOON:079:1,2012-10-06T03:30:00Z,27.8708,-97.5177,0.0,41.4,1111122 
TCOON,ioos:station:TCOON:079:1,2012-10-06T04:00:00Z,27.8708,-97.5177,0.0,41.5,1111122 
TCOON,ioos:station:TCOON:079:1,2012-10-06T04:30:00Z,27.8708,-97.5177,0.0,41.7,1111122 
TCOON,ioos:station:TCOON:079:1,2012-10-06T05:00:00Z,27.8708,-97.5177,0.0,41.9,1111122 
TCOON,ioos:station:TCOON:079:1,2012-10-06T05:30:00Z,27.8708,-97.5177,0.0,42.2,1111122 
TCOON,ioos:station:TCOON:079:1,2012-10-06T06:00:00Z,27.8708,-97.5177,0.0,42.0,1111122 
TCOON,ioos:station:TCOON:079:1,2012-10-06T06:30:00Z,27.8708,-97.5177,0.0,42.0,1111122 
TCOON,ioos:station:TCOON:079:1,2012-10-06T07:00:00Z,27.8708,-97.5177,0.0,41.9,1111122 
TCOON,ioos:station:TCOON:079:1,2012-10-06T07:30:00Z,27.8708,-97.5177,0.0,41.7,1111122 
TCOON,ioos:station:TCOON:079:1,2012-10-06T08:00:00Z,27.8708,-97.5177,0.0,41.7,1111122 
TCOON,ioos:station:TCOON:079:1,2012-10-06T08:30:00Z,27.8708,-97.5177,0.0,41.7,1111122 
TCOON,ioos:station:TCOON:079:1,2012-10-06T09:00:00Z,27.8708,-97.5177,0.0,41.8,1111122 
TCOON,ioos:station:TCOON:079:1,2012-10-06T09:30:00Z,27.8708,-97.5177,0.0,41.8,1111122 
TCOON,ioos:station:TCOON:079:1,2012-10-06T10:00:00Z,27.8708,-97.5177,0.0,41.9,1111122 
TCOON,ioos:station:TCOON:079:1,2012-10-06T10:30:00Z,27.8708,-97.5177,0.0,41.8,1111122 
TCOON,ioos:station:TCOON:079:1,2012-10-06T11:00:00Z,27.8708,-97.5177,0.0,41.9,1111122 
TCOON,ioos:station:TCOON:079:1,2012-10-06T11:30:00Z,27.8708,-97.5177,0.0,41.8,1111122 
TCOON,ioos:station:TCOON:079:1,2012-10-06T12:00:00Z,27.8708,-97.5177,0.0,41.8,1111122 
TCOON,ioos:station:TCOON:079:1,2012-10-06T12:30:00Z,27.8708,-97.5177,0.0,41.9,1111122 
TCOON,ioos:station:TCOON:079:1,2012-10-06T13:00:00Z,27.8708,-97.5177,0.0,41.9,1111122 
TCOON,ioos:station:TCOON:079:1,2012-10-06T13:30:00Z,27.8708,-97.5177,0.0,41.9,1111122 
TCOON,ioos:station:TCOON:079:1,2012-10-06T14:00:00Z,27.8708,-97.5177,0.0,41.9,1111122 
TCOON,ioos:station:TCOON:079:1,2012-10-06T14:30:00Z,27.8708,-97.5177,0.0,41.9,1111122 
TCOON,ioos:station:TCOON:079:1,2012-10-06T15:00:00Z,27.8708,-97.5177,0.0,41.9,1111122 
TCOON,ioos:station:TCOON:079:1,2012-10-06T15:30:00Z,27.8708,-97.5177,0.0,41.9,1111122 
TCOON,ioos:station:TCOON:079:1,2012-10-06T16:00:00Z,27.8708,-97.5177,0.0,42.0,1111122 
TCOON,ioos:station:TCOON:079:1,2012-10-06T16:30:00Z,27.8708,-97.5177,0.0,41.9,1111122 
TCOON,ioos:station:TCOON:079:1,2012-10-06T17:00:00Z,27.8708,-97.5177,0.0,41.9,1111122 
TCOON,ioos:station:TCOON:079:1,2012-10-06T17:30:00Z,27.8708,-97.5177,0.0,41.8,1111122 
TCOON,ioos:station:TCOON:079:1,2012-10-06T19:00:00Z,27.8708,-97.5177,0.0,41.5,1111122 
TCOON,ioos:station:TCOON:079:1,2012-10-06T19:30:00Z,27.8708,-97.5177,0.0,41.7,1111122 
TCOON,ioos:station:TCOON:079:1,2012-10-06T20:00:00Z,27.8708,-97.5177,0.0,41.4,1111122 
TCOON,ioos:station:TCOON:079:1,2012-10-06T20:30:00Z,27.8708,-97.5177,0.0,41.3,1111122 
TCOON,ioos:station:TCOON:079:1,2012-10-06T21:00:00Z,27.8708,-97.5177,0.0,41.3,1111122 
TCOON,ioos:station:TCOON:079:1,2012-10-06T21:30:00Z,27.8708,-97.5177,0.0,41.6,1111122 
TCOON,ioos:station:TCOON:079:1,2012-10-06T22:00:00Z,27.8708,-97.5177,0.0,41.4,1111122 
TCOON,ioos:station:TCOON:079:1,2012-10-06T22:30:00Z,27.8708,-97.5177,0.0,41.5,1111122 
TCOON,ioos:station:TCOON:079:1,2012-10-06T23:00:00Z,27.8708,-97.5177,0.0,41.6,1111122 
TCOON,ioos:station:TCOON:079:1,2012-10-06T23:30:00Z,27.8708,-97.5177,0.0,41.6,1111122 
TCOON,ioos:station:TCOON:079:1,2012-10-07T00:00:00Z,27.8708,-97.5177,0.0,41.7,1111122 
TCOON,ioos:station:TCOON:079:1,2012-10-07T00:30:00Z,27.8708,-97.5177,0.0,41.8,1111122 
TCOON,ioos:station:TCOON:079:1,2012-10-07T01:00:00Z,27.8708,-97.5177,0.0,42.1,1111122 
TCOON,ioos:station:TCOON:079:1,2012-10-07T01:30:00Z,27.8708,-97.5177,0.0,42.4,1111122 
TCOON,ioos:station:TCOON:079:1,2012-10-07T02:00:00Z,27.8708,-97.5177,0.0,42.6,1111122 
TCOON,ioos:station:TCOON:079:1,2012-10-07T02:30:00Z,27.8708,-97.5177,0.0,42.6,1111122 
TCOON,ioos:station:TCOON:079:1,2012-10-07T03:00:00Z,27.8708,-97.5177,0.0,42.6,1111122 
TCOON,ioos:station:TCOON:079:1,2012-10-07T03:30:00Z,27.8708,-97.5177,0.0,42.7,1111122 
TCOON,ioos:station:TCOON:079:1,2012-10-07T04:00:00Z,27.8708,-97.5177,0.0,42.3,1111122 
TCOON,ioos:station:TCOON:079:1,2012-10-07T04:30:00Z,27.8708,-97.5177,0.0,42.1,1111122 
TCOON,ioos:station:TCOON:079:1,2012-10-07T05:00:00Z,27.8708,-97.5177,0.0,42.2,1111122 
TCOON,ioos:station:TCOON:079:1,2012-10-07T05:30:00Z,27.8708,-97.5177,0.0,42.2,1111122 
TCOON,ioos:station:TCOON:079:1,2012-10-07T06:00:00Z,27.8708,-97.5177,0.0,42.2,1111122 
TCOON,ioos:station:TCOON:079:1,2012-10-07T06:30:00Z,27.8708,-97.5177,0.0,42.3,1111122 
TCOON,ioos:station:TCOON:079:1,2012-10-07T07:00:00Z,27.8708,-97.5177,0.0,42.5,1111122 
TCOON,ioos:station:TCOON:079:1,2012-10-07T07:30:00Z,27.8708,-97.5177,0.0,42.2,1111122 
TCOON,ioos:station:TCOON:079:1,2012-10-07T08:00:00Z,27.8708,-97.5177,0.0,42.4,1111122 
TCOON,ioos:station:TCOON:079:1,2012-10-07T08:30:00Z,27.8708,-97.5177,0.0,42.4,1111122 